Regional Weather Roundup
Issued by NWS

Home | Current Version | Previous Version | Text Only | Print | Product List | Glossary On
Versions: 1 2 3 4 5 6 7 8 9 10 11 12 13 14 15 16 17 18 19 20 21 22 23 24 25 26 27 28 29 30 31 32 33 34 35 36 37 38 39 40 41 42 43 44 45 46 47 48 49 50
000
ASUS44 KMEG 230210
RWRTN
TENNESSEE HOURLY STATE WEATHER ROUNDUP
NATIONAL WEATHER SERVICE MEMPHIS TN
900 PM CDT WED MAR 22 2017

TNZ002-004-019-021-049-052-054-088>092-230300-
WEST TENNESSEE

CITY           SKY/WX    TMP DP  RH WIND       PRES   REMARKS
MEMPHIS INTL   PTCLDY    59  29  32 NE10      30.27R
NWS MEMPHIS      N/A     55 N/A N/A MISG        N/A
JACKSON        CLEAR     53  28  38 NE9       30.29S
DYERSBURG      CLEAR     51  30  44 NE9       30.31R
SOMERVILLE     CLEAR     54  30  40 CALM      30.26R
BOLIVAR        CLEAR     54  27  35 NE6       30.27S
PARIS          CLEAR     45  25  45 NE7       30.33S
HUNTINGDON     CLOUDY    48  28  46 NE6       30.31S
SAVANNAH       CLEAR     52  28  40 NE6       30.28R
$$

TNZ008-025-027-028-033-062-065-066-230300-
NORTH MIDDLE TENNESSEE

CITY           SKY/WX    TMP DP  RH WIND       PRES   REMARKS
NASHVILLE      PTCLDY    48  20  32 NE12      30.34R
PORTLAND       CLEAR     45  19  36 NE8       30.36R
CLARKSVILLE    CLEAR     45  21  38 NE8       30.36R
SMYRNA         CLEAR     48  22  35 N10       30.35R
COOKEVILLE     CLEAR     46  19  34 VRB5G12   30.32R
GALLATIN       CLEAR     46  19  34 N8        30.38S
CROSSVILLE     CLEAR     44  16  32 N6        30.32R
$$

TNZ061-075-076-078-094-096-097-230300-
SOUTH MIDDLE TENNESSEE

CITY           SKY/WX    TMP DP  RH WIND       PRES   REMARKS
FAYETTEVILLE   CLEAR     50  25  37 N8        30.30R
TULLAHOMA      CLEAR     48  16  27 NE5       30.31R
WINCHESTER     CLEAR     46  19  34 NE3       30.31R
MCMINNVILLE    CLEAR     45  19  36 NE8       30.32R
COLUMBIA       CLEAR     48  21  34 NE5       30.31R
SHELBYVILLE    CLEAR     46  28  49 N5        30.33R
$$

TNZ017-018-042-046-047-230300-
NORTHEAST TENNESSEE

CITY           SKY/WX    TMP DP  RH WIND       PRES   REMARKS
TRI CITIES     PTCLDY    40  19  43 NE5       30.35R
$$

TNZ012-013-036-069-073-074-230300-
CENTRAL EAST TENNESSEE

CITY           SKY/WX    TMP DP  RH WIND       PRES   REMARKS
KNOXVILLE      PTCLDY    50  20  30 N10       30.29R
OAK RIDGE      CLEAR     50  15  24 VRB3      30.33R
DOWNTOWN KNOXV CLEAR     52  19  28 VRB5G14   30.31R
GATLINBURG     CLEAR     43  28  56 CALM      30.30R
MORRISTOWN     CLEAR     48  16  27 E7        30.31R
JACKSBORO      CLEAR     46  16  29 NE7       30.36R
$$

TNZ083-085-099-230300-
SOUTHEAST TENNESSEE

CITY           SKY/WX    TMP DP  RH WIND       PRES   REMARKS
CHATTANOOGA    PTCLDY    53  26  35 NE5       30.28R
$$

SKY/WX REPORTED AS FAIR MEANS FEW OR NO CLOUDS BELOW
12 THOUSAND FEET.




USA.gov is the U.S. government's official web portal to all federal, state and local government web resources and services.